Tracking 26955 objects as of 2-Feb-2023
HD Live streaming from Space Station
objects crossing your sky now

SL-8 R/B

Track SL-8 R/B now!
10-day predictions


NORAD ID: 28421
Int'l Code: 2004-037C
Perigee: 1,477.7 km
Apogee: 1,512.7 km
Inclination: 82.5 °
Period: 115.7 minutes
Semi major axis: 7866 km
RCS: 5.1924 m2 (large)
Launch date: September 23, 2004
Source: Commonwealth of Independent States (former USSR) (CIS)
Launch site: PLESETSK MISSILE AND SPACE COMPLEX (PKMTR)

Note: This is a ROCKET BODY
Your satellite tracking list
Your tracking list is empty




NASA's NSSDC Master Catalog

Two Line Element Set (TLE):
1 28421U 04037C   23033.48181455  .00000101  00000-0  64611-3 0  9991
2 28421  82.4826  25.1637 0022282 121.4313 357.6567 12.44383542833867
Source of the keplerian elements: AFSPC